Tracking 20623 objects as of 3-Apr-2020
HD Live streaming from Space Station
objects crossing your sky now

ARIANE 2 DEB

Track ARIANE 2 DEB now!


NORAD ID: 33568
Int'l Code: 1989-006BL
Perigee: 424.9 km
Apogee: 35,421.6 km
Inclination: 7.8 °
Period: 628.1 minutes
Semi major axis: 24294 km
RCS: 0.1575 m2 (medium)
Launch date: January 27, 1989
Source: France (FR)
Launch site: FRENCH GUIANA (FRGUI)

Note: This is SATELLITE DEBRIS
aabbcc
Your satellite tracking list
Your tracking list is empty




NASA's NSSDC Master Catalog

Two Line Element Set (TLE):
1 33568U 89006BL  19354.07255432 -.00000108 +00000-0 +70640-5 0  9990
2 33568 007.7636 199.2228 7202675 226.4289 045.2043 02.29270421061735
Source of the keplerian elements: AFSPC